Location: Newark
(59.8814°N, 10.8258°E)
Time: 20:31:42
(UTC+00:00)

Envisat - Visible Passes

Search period start: 24 January 2020 00:00
Search period end: 03 February 2020 00:00
Orbit: 764 x 766 km, 98.1° (Epoch: 24 January)

Date Brightness Start Highest point End Pass type
(mag) Time Alt. Az. Time Alt. Az. Time Alt. Az.
24 Jan 5.3 05:07:05 10° NNE 05:11:22 26° E 05:15:37 10° SSE visible
24 Jan 3.0 06:45:49 10° NNE 06:50:56 75° WNW 06:56:01 10° SSW visible
24 Jan 3.0 16:31:02 10° SSE 16:36:08 82° ENE 16:41:15 10° NNW visible
24 Jan 5.4 18:11:42 10° SW 18:15:47 24° W 18:19:53 10° NW visible
25 Jan 6.1 04:31:04 10° NE 04:34:03 15° E 04:37:03 10° ESE visible
25 Jan 3.5 06:09:01 10° NNE 06:14:06 66° ESE 06:19:09 10° S visible
25 Jan 3.2 15:54:32 10° SE 15:59:26 49° ENE 16:04:21 10° N visible
25 Jan 4.4 17:33:50 10° SSW 17:38:37 40° W 17:43:26 10° NNW visible
26 Jan 4.6 05:32:21 10° NNE 05:37:07 38° E 05:41:50 10° SSE visible
26 Jan 3.4 16:56:34 10° S 17:01:39 70° WSW 17:06:45 10° NNW visible
26 Jan 5.9 18:38:28 10° WSW 18:41:39 16° W 18:44:50 10° NW visible
27 Jan 5.5 04:55:57 10° NE 04:59:56 23° E 05:03:54 10° SE visible
27 Jan 3.0 06:34:30 10° NNE 06:39:39 87° WNW 06:44:44 10° SSW visible
27 Jan 3.0 16:19:47 10° SSE 16:24:50 71° ENE 16:29:56 10° NNW visible
27 Jan 5.1 18:00:01 10° SSW 18:04:21 28° W 18:08:44 10° NNW visible
28 Jan 6.2 04:20:13 10° NE 04:22:34 13° E 04:24:55 10° ESE visible
28 Jan 3.8 05:57:44 10° NNE 06:02:46 56° E 06:07:46 10° S visible
28 Jan 4.1 17:22:21 10° S 17:27:15 47° W 17:32:12 10° NNW visible
28 Jan 6.4 19:06:17 10° W 19:07:37 11° WNW 19:08:56 10° WNW visible
29 Jan 4.9 05:21:08 10° NNE 05:25:43 32° E 05:30:17 10° SSE visible
29 Jan 3.1 16:45:14 10° SSE 16:50:20 81° WSW 16:55:28 10° NNW visible
29 Jan 5.7 18:26:33 10° SW 18:30:10 19° W 18:33:49 10° NW visible
30 Jan 5.8 04:44:51 10° NE 04:48:29 19° E 04:52:07 10° SE visible
30 Jan 3.2 06:23:12 10° NNE 06:28:20 81° ESE 06:33:26 10° SSW visible
30 Jan 3.0 16:08:34 10° SE 16:13:34 61° ENE 16:18:36 10° NNW visible
30 Jan 4.9 17:48:23 10° SSW 17:52:57 32° W 17:57:32 10° NNW visible
31 Jan 6.4 04:09:43 10° ENE 04:11:03 11° ENE 04:12:23 10° E visible
31 Jan 4.2 05:46:28 10° NNE 05:51:25 47° E 05:56:19 10° S visible
31 Jan 3.8 17:10:54 10° S 17:15:54 56° W 17:20:56 10° NNW visible
31 Jan 6.2 18:53:45 10° WSW 18:56:06 13° W 18:58:27 10° NW visible
01 Feb 5.2 05:09:56 10° NNE 05:14:19 28° E 05:18:39 10° SSE visible
01 Feb 3.0 16:33:55 10° SSE 16:39:01 87° ENE 16:44:09 10° NNW visible
01 Feb 5.5 18:14:46 10° SW 18:18:44 23° W 18:22:43 10° NW visible
02 Feb 6.0 04:33:49 10° NE 04:37:01 16° E 04:40:12 10° ESE visible
02 Feb 3.4 06:11:54 10° NNE 06:17:01 70° ESE 06:22:06 10° S visible
02 Feb 4.6 17:36:49 10° SSW 17:41:33 38° W 17:46:19 10° NNW visible
